Location: Blienschwiller
(48.3416°N, 7.4182°E)
Time: 04:55:50
(UTC+00:00)

BREEZE-M DEB (TANK) - Pass Details

Date: 18 February 2020
Orbit: 324 x 11711 km, 49.7° (Epoch: 28 March)

Event Time Altitude Azimuth Distance (km) Brightness Sun altitude
Exits shadow 03:57:43 65° 151° (SSE) 775 4.0 -26.4°
Drops below altitude 10° 04:05:56 10° 72° (ENE) 4,131 8.8 -25.1°
Sets 04:11:58 0° 71° (ENE) 6,627 10.2 -24.1°
